Le nostre stazioni meteo in Italia

Pubblicità
Il mio iltempo24.it
Capo Palinuro, Italia (16310): Temperatura & dewpoint: 12.03.2019 20:00:00 - 18.03.2019 20:00:00 (CET)Capo Palinuro, Italia (16310): velocità del vento: 12.03.2019 20:00:00 - 18.03.2019 20:00:00 (CET)Capo Palinuro, Italia (16310): direzione del vento: 12.03.2019 20:00:00 - 18.03.2019 20:00:00 (CET)Capo Palinuro, Italia (16310): reduced air pressure: 12.03.2019 20:00:00 - 18.03.2019 20:00:00 (CET)Capo Palinuro, Italia (16310): visibility: 12.03.2019 20:00:00 - 18.03.2019 20:00:00 (CET)Capo Palinuro, Italia (16310): ore di luce: 12.03.2019 20:00:00 - 18.03.2019 20:00:00 (CET)
Data & Tempo tt [°C] td [°C] ff [km/h] ff [kn] dd ppp [hPa] vv [km] sd [min]
18.03.2019 20:00:00 - - - - - - - -
18.03.2019 19:00:00 12,4 10,8 0 0 N 1015,2 10 -
18.03.2019 18:00:00 - - - - - - - -
18.03.2019 17:00:00 14,0 11,5 0 0 N 1015,0 10 60
18.03.2019 16:00:00 15,0 11,6 8 4 SO 1015,0 10 60
18.03.2019 15:00:00 15,4 11,4 0 0 N 1015,3 10 60
18.03.2019 14:00:00 16,0 11,8 0 0 N 1015,9 10 60
18.03.2019 13:00:00 15,0 11,6 5 3 N 1015,9 15 60
18.03.2019 12:00:00 14,0 11,0 0 0 N 1015,9 10 60
18.03.2019 11:00:00 14,0 11,0 0 0 N 1015,8 10 60
18.03.2019 10:00:00 12,2 9,8 11 6 SE 1015,1 15 0
18.03.2019 09:00:00 11,2 9,0 13 7 SE 1014,9 10 0
18.03.2019 08:00:00 11,2 9,1 8 4 E 1014,6 10 0
18.03.2019 07:00:00 11,2 9,1 9 5 E 1014,5 10 0
18.03.2019 06:00:00 11,0 8,6 9 5 SSO 1014,5 10 -
18.03.2019 05:00:00 11,2 8,8 8 4 SO 1015,0 10 -
18.03.2019 04:00:00 11,0 8,6 8 4 ESE 1015,2 10 -
18.03.2019 03:00:00 11,4 8,8 5 3 SSO 1015,5 10 -
18.03.2019 02:00:00 11,4 9,0 8 4 SO 1015,6 10 -
18.03.2019 01:00:00 11,2 9,0 9 5 E 1015,9 10 -
18.03.2019 00:00:00 11,4 9,3 8 4 SSO 1016,0 10 -
17.03.2019 23:00:00 11,0 8,7 8 4 E 1016,2 10 -
17.03.2019 22:00:00 11,2 9,6 9 5 E 1016,1 10 -
17.03.2019 21:00:00 11,0 9,4 8 4 SSO 1016,2 10 -
17.03.2019 20:00:00 11,0 8,7 4 2 SSO 1016,2 10 -
17.03.2019 19:00:00 11,2 9,1 5 3 SSO 1016,3 20 -
17.03.2019 18:00:00 13,4 11,8 8 4 SSO 1016,4 20 18
17.03.2019 17:00:00 14,8 12,8 8 4 SSO 1016,5 20 60
17.03.2019 16:00:00 15,6 13,1 9 5 SSO 1016,9 20 60
17.03.2019 15:00:00 16,2 12,9 8 4 SSO 1017,3 20 60
17.03.2019 14:00:00 16,0 12,9 5 3 NE 1017,8 20 60
17.03.2019 13:00:00 15,2 11,8 9 5 N 1018,0 20 60
17.03.2019 12:00:00 15,0 11,0 8 4 NNE 1018,0 20 60
17.03.2019 11:00:00 14,2 9,8 8 4 NNE 1018,0 20 60
17.03.2019 10:00:00 13,6 8,7 11 6 NNE 1018,2 20 60
17.03.2019 09:00:00 13,0 8,7 11 6 SSE 1018,3 20 60
17.03.2019 08:00:00 12,0 9,6 15 8 SSE 1018,2 20 48
17.03.2019 07:00:00 11,6 9,2 4 2 NNE 1018,3 20 -
17.03.2019 06:00:00 10,0 7,6 4 2 NNE 1018,4 10 -
17.03.2019 05:00:00 10,0 7,6 8 4 NNE 1018,4 10 -
17.03.2019 04:00:00 10,2 7,8 4 2 NNE 1018,7 20 -
17.03.2019 03:00:00 10,6 8,2 0 0 N 1018,9 20 -
17.03.2019 02:00:00 11,2 8,8 0 0 N 1018,8 20 -
17.03.2019 01:00:00 11,4 9,0 0 0 N 1019,3 20 -
17.03.2019 00:00:00 11,2 8,8 4 2 SSE 1019,3 10 -
16.03.2019 23:00:00 11,0 8,6 0 0 N 1019,3 10 -
16.03.2019 22:00:00 11,2 8,8 8 4 SSE 1019,3 10 -
16.03.2019 21:00:00 11,4 9,0 0 0 SSE 1019,2 10 -
16.03.2019 20:00:00 12,0 9,5 8 4 SSE 1019,2 15 -
16.03.2019 19:00:00 13,2 11,3 9 5 ESE 1019,0 10 -
16.03.2019 18:00:00 12,8 11,2 9 5 S 1019,1 10 12
16.03.2019 17:00:00 13,4 11,8 8 4 ESE 1019,0 10 60
16.03.2019 16:00:00 14,0 12,0 9 5 NNE 1019,1 18 30
16.03.2019 15:00:00 14,6 11,6 15 8 ENE 1019,1 20 60
16.03.2019 14:00:00 14,0 11,0 15 8 SSE 1019,6 20 60
16.03.2019 13:00:00 14,0 10,2 9 5 NE 1020,0 20 60
16.03.2019 12:00:00 13,6 10,6 11 6 S 1019,8 20 30
16.03.2019 11:00:00 13,4 10,8 11 6 S 1019,4 20 0
16.03.2019 10:00:00 12,0 9,7 11 6 SSO 1019,4 20 0
16.03.2019 09:00:00 11,4 9,3 13 7 S 1019,1 20 0
16.03.2019 08:00:00 11,2 8,8 9 5 SSO 1018,7 20 0
16.03.2019 07:00:00 11,0 7,7 8 4 SSE 1018,4 20 0
16.03.2019 06:00:00 11,0 8,1 0 0 N 1018,3 20 -
16.03.2019 05:00:00 10,8 8,2 9 5 SSE 1018,3 20 -
16.03.2019 04:00:00 10,8 8,9 11 6 SE 1018,2 20 -
16.03.2019 03:00:00 10,8 8,9 9 5 SE 1018,1 20 -
16.03.2019 02:00:00 10,8 9,1 9 5 SSE 1018,0 20 -
16.03.2019 01:00:00 10,8 9,1 0 0 N 1017,7 20 -
16.03.2019 00:00:00 10,8 8,9 8 4 SE 1017,4 20 -
15.03.2019 23:00:00 11,0 8,7 8 4 SE 1016,9 20 -
15.03.2019 22:00:00 11,0 8,7 0 0 N 1016,4 20 -
15.03.2019 21:00:00 11,0 9,1 9 5 ONO 1015,7 20 -
15.03.2019 20:00:00 11,0 9,3 8 4 NO 1015,2 20 -
15.03.2019 19:00:00 11,0 9,4 9 5 ONO 1014,8 20 -
15.03.2019 18:00:00 12,0 10,4 9 5 OSO 1014,3 20 36
15.03.2019 17:00:00 12,4 10,0 11 6 OSO 1014,1 20 60
15.03.2019 16:00:00 13,4 10,0 11 6 SSO 1013,8 20 60
15.03.2019 15:00:00 13,8 9,8 9 5 SO 1013,8 20 60
15.03.2019 14:00:00 13,6 9,1 9 5 SSO 1013,7 20 60
15.03.2019 13:00:00 14,0 9,2 11 6 SO 1013,5 20 60
15.03.2019 12:00:00 13,8 9,7 18 10 SSO 1013,2 20 60
15.03.2019 11:00:00 13,0 9,1 13 7 SSO 1013,0 20 60
15.03.2019 10:00:00 12,2 7,3 21 11 O 1012,6 20 60
15.03.2019 09:00:00 11,0 6,7 11 6 OSO 1012,7 20 60
15.03.2019 08:00:00 10,4 7,5 16 9 O 1012,3 20 60
15.03.2019 07:00:00 10,2 7,4 5 3 OSO 1012,0 20 36
15.03.2019 06:00:00 10,0 8,1 11 6 NO 1012,3 20 -
15.03.2019 05:00:00 10,0 8,1 8 4 ONO 1012,3 20 -
15.03.2019 04:00:00 10,0 8,1 5 3 NNO 1012,3 20 -
15.03.2019 03:00:00 9,8 7,4 8 4 N 1012,3 20 -
15.03.2019 02:00:00 9,8 7,4 9 5 NO 1012,2 20 -
15.03.2019 01:00:00 9,8 7,1 11 6 NO 1013,0 20 -
15.03.2019 00:00:00 9,8 6,0 9 5 NNO 1012,9 20 -
14.03.2019 23:00:00 10,0 4,4 9 5 NO 1012,3 20 -
14.03.2019 22:00:00 10,0 4,0 13 7 ONO 1012,2 20 -
14.03.2019 21:00:00 10,0 4,0 11 6 NO 1012,0 20 -
14.03.2019 20:00:00 10,0 4,8 18 10 NNO 1012,2 20 -
14.03.2019 19:00:00 10,0 4,4 16 9 NO 1011,4 20 -
14.03.2019 18:00:00 10,4 4,8 16 9 OSO 1011,3 20 -
14.03.2019 17:00:00 11,0 5,8 26 14 NNO 1010,2 20 60
14.03.2019 16:00:00 11,2 5,5 26 14 OSO 1010,2 20 48
14.03.2019 15:00:00 11,2 6,7 21 11 NNO 1009,9 20 48
14.03.2019 14:00:00 11,0 9,1 16 9 ONO 1010,0 10 0
14.03.2019 13:00:00 10,8 7,9 24 13 O 1010,0 10 12
14.03.2019 12:00:00 10,0 7,6 22 12 OSO 1009,9 10 0
14.03.2019 11:00:00 11,0 8,6 13 7 NNO 1010,0 10 12
14.03.2019 10:00:00 11,4 8,6 9 5 SSO 1010,0 20 60
14.03.2019 09:00:00 10,6 8,2 0 0 N 1010,0 10 60
14.03.2019 08:00:00 - - - - - - - -
14.03.2019 07:00:00 - - - - - - - -
14.03.2019 06:00:00 - - - - - - - -
14.03.2019 05:00:00 - - - - - - - -
14.03.2019 04:00:00 10,0 7,6 4 2 SSE 1012,4 10 -
14.03.2019 03:00:00 10,6 8,2 4 2 SSE 1012,9 10 -
14.03.2019 02:00:00 11,0 8,1 5 3 NNE 1014,3 10 -
14.03.2019 01:00:00 11,0 8,6 5 3 N 1014,1 10 -
14.03.2019 00:00:00 10,6 8,5 4 2 NNE 1014,3 10 -
13.03.2019 23:00:00 10,8 8,9 4 2 ENE 1015,2 10 -
13.03.2019 22:00:00 11,0 8,6 8 4 SSE 1015,2 20 -
13.03.2019 21:00:00 10,6 8,5 9 5 N 1015,5 20 -
13.03.2019 20:00:00 10,4 8,2 9 5 NNE 1015,5 20 -
13.03.2019 19:00:00 10,4 7,1 8 4 N 1015,8 20 -
13.03.2019 18:00:00 11,0 7,1 9 5 NNE 1016,3 20 0
13.03.2019 17:00:00 11,6 7,1 15 8 NNE 1016,3 20 60
13.03.2019 16:00:00 12,4 6,4 9 5 NNE 1016,2 20 -
13.03.2019 15:00:00 12,0 5,2 9 5 NNE 1016,7 20 60
13.03.2019 14:00:00 12,2 4,7 15 8 NNE 1017,1 20 60
13.03.2019 13:00:00 12,4 4,1 15 8 SSE 1017,2 20 60
13.03.2019 12:00:00 11,8 2,8 9 5 SSE 1017,6 20 60
13.03.2019 11:00:00 11,4 2,7 9 5 ENE 1017,5 20 -
13.03.2019 10:00:00 10,4 -0,4 8 4 E 1017,6 20 60
13.03.2019 09:00:00 9,4 -1,0 8 4 NNE 1017,6 20 60
13.03.2019 08:00:00 8,8 0,5 13 7 NNE 1017,7 20 24
13.03.2019 07:00:00 8,0 0,3 11 6 NNE 1017,6 20 0
13.03.2019 06:00:00 8,2 1,4 15 8 N 1017,5 20 -
13.03.2019 05:00:00 8,0 -1,3 8 4 NO 1017,5 20 -
13.03.2019 04:00:00 8,0 0,5 15 8 N 1017,7 25 -
13.03.2019 03:00:00 7,8 0,1 18 10 N 1018,5 25 -
13.03.2019 02:00:00 7,8 1,2 16 9 N 1018,5 20 -
13.03.2019 01:00:00 8,2 1,4 18 10 N 1018,5 20 -
13.03.2019 00:00:00 8,0 0,7 26 14 N 1018,5 20 -
12.03.2019 23:00:00 9,0 1,2 16 9 N 1017,7 25 -
12.03.2019 22:00:00 9,0 1,0 28 15 NNO 1017,6 20 -
12.03.2019 21:00:00 9,2 0,4 26 14 NO 1017,6 25 -
12.03.2019 20:00:00 9,2 -0,1 26 14 N 1017,4 20 -

tt = Temperatura
td = dewpoint
ff = velocità del vento
dd = direzione del vento
ppp = reduced air pressure
vv = visibility
sd = ore di luce

Stazioni seguenti

WeatherPro
AMSI
MeteoEarth